sat.trackr.live / text

‹ back to catalog

STARLINK-35604

NORAD 66802 · 2025-278M

PAYLOAD ACTIVE UNKNOWN

§ Identity

Operator
Country
US
Launch date
2025-12-01
Launch site
AFETR
Launch vehicle
Mass (kg)
RCS (m²)

Purposes: comms

External: N2YO · Heavens-Above · Gunter

§ Orbital elements

Epoch: 2026-09-20T06:10:24.007584Z

Period
94.27 min
Inclination
43.0017°
Eccentricity
0.0000330
Mean motion
15.27577195 rev/d
Perigee alt
482.8 km
Apogee alt
483.3 km
Semi-major
6,861.2 km
B*
4.7097e-4
RAAN
95.7248°
Arg perigee
285.0222°
Mean anomaly
75.0593°
Rev number
4,496

§ Raw data

STARLINK-356041 66802U 25278M   26263.25722231  .00012719  00000+0  47097-3 0  99982 66802  43.0017  95.7248 0000330 285.0222  75.0593 15.27577195 44962

JSON: /api/v1/satellites/66802 · /tle

For live sub-satellite position, see the globe view (requires WebGL).

§ Visibility from observer

Set your observer location to see the next 7 days of passes ≥ 10°. The values pass through the URL so the page stays shareable.

No JS? Fill the form by hand. The geolocation button needs JavaScript.